Home > Weather > Wellington > Past weeks

Flag for New Zealand Past Weather in Wellington, New Zealand — Yesterday and Last 2 Weeks

Now
55 °F

Refreshingly cool.


Feels Like: 52 °F
Forecast: 47 / 51 °F
Wind: 14 mph from Northwest

Location: Wellington Airport

Current Time: Jul 25, 2016 at 12:23:32 PM

Latest Report: Jul 25, 2016 at 11:30 AM


Visibility: N/A

Pressure: 29.62 "Hg

Humidity: 51%

Dew Point: 37 °F

Location of WellingtonLocation

Past Weather in Wellington — Graph

°F

Wellington Temperature Yesterday

Maximum temperature yesterday: 61 °F (at 12:30 AM)
Minimum temperature yesterday: 52 °F (at 5:30 PM)
Average temperature yesterday: 57 °F

High & Low Weather Summary for the Past Weeks

 TemperatureHumidityPressure
High61 °F (Jul 24, 12:30 AM)100% (Jul 11, 5:00 AM)30.36 "Hg (Jul 11, 5:00 AM)
Low36 °F (Jul 11, 5:30 AM)38% (Jul 14, 7:00 PM)28.97 "Hg (Jul 24, 2:00 AM)
Average51 °F72%29.75 "Hg
* Reported Jul 10 11:00 AM — Jul 25 11:00 AM, Wellington, Weather by CustomWeather, © 2016

Note: Actual official high and low records may vary slightly from our data, if they occured in-between our weather recording intervals... More about our weather records

Advertising

Wellington Weather History for the Previous 24 Hours

Scroll right to see more
 ConditionsComfort  
Time TempWeatherWind HumidityBarometerVisibility
11:00 AM
Mon, Jul 25
55 °FRefreshingly cool.18 mph51%29.62 "HgN/A
10:30 AM54 °FCool.21 mph54%29.59 "HgN/A
10:00 AM54 °FCool.17 mph54%29.59 "HgN/A
9:30 AM54 °FCool.21 mph54%29.56 "HgN/A
9:00 AM54 °FCool.20 mph51%29.56 "HgN/A
8:30 AM52 °FCool.24 mph50%29.53 "HgN/A
8:00 AM52 °FCool.23 mph50%29.53 "HgN/A
7:30 AM52 °FCool.23 mph50%29.50 "HgN/A
7:00 AM52 °FCool.14 mph47%29.50 "HgN/A
6:30 AM52 °FCool.13 mph50%29.50 "HgN/A
6:00 AM52 °FCool.17 mph50%29.47 "HgN/A
5:30 AM52 °FCool.21 mph50%29.45 "HgN/A
5:00 AM52 °FCool.15 mph50%29.42 "HgN/A
4:30 AM52 °FCool.10 mph50%29.42 "HgN/A
4:00 AM52 °FCool.9 mph50%29.42 "HgN/A
3:30 AM52 °FCool.10 mph54%29.39 "HgN/A
3:00 AM54 °FCool.16 mph47%29.39 "HgN/A
2:30 AM54 °FCool.16 mph47%29.36 "HgN/A
2:00 AM54 °FCool.18 mph51%29.36 "HgN/A
1:30 AM54 °FCool.15 mph51%29.33 "HgN/A
1:00 AM54 °FCool.20 mph51%29.30 "HgN/A
12:30 AM54 °FCool.17 mph51%29.30 "HgN/A
12:00 AM54 °FCool.10 mph54%29.27 "HgN/A
11:30 PM
Sun, Jul 24
54 °FPassing clouds.6 mph54%29.24 "HgN/A
11:00 PM54 °FPartly cloudy.8 mph58%29.24 "HgN/A
10:30 PM52 °FPassing clouds.8 mph62%29.24 "HgN/A
10:00 PM54 °FCool.12 mph54%29.21 "HgN/A
9:30 PM54 °FPassing clouds.13 mph54%29.21 "HgN/A
9:00 PM54 °FCool.16 mph58%29.21 "HgN/A
8:30 PM54 °FCool.13 mph54%29.21 "HgN/A
8:00 PM54 °FCool.14 mph58%29.21 "HgN/A
7:30 PM54 °FCool.10 mph54%29.21 "HgN/A
7:00 PM54 °FCool.12 mph51%29.21 "HgN/A
6:30 PM54 °FCool.13 mph54%29.18 "HgN/A
6:00 PM54 °FCool.16 mph51%29.18 "HgN/A
5:30 PM52 °FCool.16 mph58%29.18 "HgN/A
5:00 PM54 °FCool.18 mph51%29.15 "HgN/A
4:30 PM55 °FRefreshingly cool.13 mph47%29.12 "HgN/A
4:00 PM55 °FScattered clouds.18 mph55%29.12 "HgN/A
3:30 PM57 °FScattered clouds.18 mph48%29.09 "HgN/A
3:00 PM57 °FPassing clouds.17 mph51%29.06 "HgN/A
2:30 PM57 °FRefreshingly cool.18 mph48%29.03 "HgN/A
2:00 PM59 °FRefreshingly cool.23 mph48%29.03 "HgN/A
1:30 PM59 °FRefreshingly cool.24 mph48%29.00 "HgN/A
1:00 PM59 °FRefreshingly cool.28 mph48%29.00 "HgN/A
12:30 PM59 °FRefreshingly cool.29 mph48%29.00 "HgN/A
12:00 PM59 °FRefreshingly cool.30 mph48%29.00 "HgN/A
Weather by CustomWeather, © 2016

See weather overviewHow to use our weather pages